This demonstration page uses our WeatherBlox Daily Observations layout. Learn more.

Left ArrowRight Arrow

Hourly Observations for November 27, 2021

Temp ( °F °C ) Dew Point ( °F °C ) Humidity (%) Winds ( mph kmh ) Pressure ( in mb ) Visibility ( mi km ) Precip ( " mm )
12:51 am 00:51 Clear 43 6.1 30 -1.1 60 60 E 8 13 30.05 1018 10 16 0.00 0.00
1:51 am 01:51 Clear 42 5.6 29 -1.7 60 60 E 7 11 30.04 1017 10 16 0.00 0.00
2:51 am 02:51 Clear 39 3.9 29 -1.7 67 67 VRB 6 9 30.05 1018 10 16 0.00 0.00
3:51 am 03:51 Clear 36 2.2 28 -2.2 73 73 WNW 3 6 30.06 1018 10 16 0.00 0.00
4:51 am 04:51 Clear 33 0.6 26 -3.3 75 75 Calm 30.09 1019 10 16 0.00 0.00
5:51 am 05:51 Clear 34 1.1 27 -2.8 76 76 Calm 30.10 1019 10 16 0.00 0.00
6:51 am 06:51 Clear 33 0.6 26 -3.3 75 75 E 6 9 30.13 1020 10 16 0.00 0.00
7:51 am 07:51 Sunny 39 3.9 29 -1.7 67 67 E 5 7 30.12 1020 10 16 0.00 0.00
8:51 am 08:51 Sunny 46 7.8 33 0.6 61 61 Calm 30.14 1021 10 16 0.00 0.00
9:51 am 09:51 Sunny 50 10 33 0.6 52 52 Calm 30.14 1021 10 16 0.00 0.00
10:51 am 10:51 Sunny 55 12.8 33 0.6 44 44 Calm 30.13 1020 10 16 0.00 0.00
11:51 am 11:51 Sunny 57 13.9 33 0.6 41 41 VRB 3 6 30.10 1019 10 16 0.00 0.00
12:51 pm 12:51 Sunny 61 16.1 31 -0.6 32 32 WNW 9 15 30.06 1018 10 16 0.00 0.00
1:51 pm 13:51 Sunny 64 17.8 28 -2.2 26 26 W 9 15 30.03 1017 10 16 0.00 0.00
2:51 pm 14:51 Sunny 67 19.4 25 -3.9 20 20 NW 12 19 30.01 1016 10 16 0.00 0.00
3:51 pm 15:51 Sunny 67 19.4 26 -3.3 21 21 NW 10 17 30.01 1016 10 16 0.00 0.00
4:51 pm 16:51 Sunny 65 18.3 25 -3.9 22 22 WNW 9 15 30.03 1017 10 16 0.00 0.00
5:51 pm 17:51 Clear 57 13.9 25 -3.9 29 29 NW 6 9 30.06 1018 10 16 0.00 0.00
6:51 pm 18:51 Clear 56 13.3 25 -3.9 30 30 Calm 30.10 1019 10 16 0.00 0.00
7:51 pm 19:51 Clear 49 9.4 26 -3.3 41 41 ESE 5 7 30.11 1020 10 16 0.00 0.00
8:51 pm 20:51 Clear 49 9.4 27 -2.8 43 43 E 7 11 30.13 1020 10 16 0.00 0.00
9:51 pm 21:51 Clear 45 7.2 26 -3.3 48 48 E 7 11 30.15 1021 10 16 0.00 0.00
10:51 pm 22:51 Clear 43 6.1 25 -3.9 49 49 E 6 9 30.16 1021 10 16 0.00 0.00
11:51 pm 23:51 Clear 43 6.1 24 -4.4 47 47 SSE 7 11 30.18 1022 10 16 0.00 0.00

Powered by AerisWeather